Tracking 25995 objects as of 20-Aug-2022
HD Live streaming from Space Station
objects crossing your sky now

INSAT 2R (ARABSAT 1C)

Track INSAT 2R (ARABSAT 1C) now!
INSAT 2R (ARABSAT 1C) is classified as:


NORAD ID: 21894
Int'l Code: 1992-010B
Perigee: 36,146.2 km
Apogee: 36,342.7 km
Inclination: 13.3 °
Period: 1,459.2 minutes
Semi major axis: 42615 km
RCS: 2.2387 m2 (large)
Launch date: February 26, 1992
Source: India (IND)
Launch site: FRENCH GUIANA (FRGUI)
aabbcc
Your satellite tracking list
Your tracking list is empty




NASA's NSSDC Master Catalog

Two Line Element Set (TLE):
1 21894U 92010B   22231.25674493 -.00000233  00000-0  00000-0 0  9995
2 21894  13.2964  21.4214 0023048 234.2610 129.2272  0.98685249110457
Source of the keplerian elements: AFSPC